Sulphur, LA

6:07 PM CDT on April 25, 2018 (GMT -0500)
Sulphur

Weather History for KUXL - June, 2014

Change the Weather History Date:

Tuesday, June 10, 2014

  Actual Average (KLCH) Record (KLCH)
Temperature  
Mean Temperature 80 °F -  
Max Temperature 89 °F 88 °F 98 °F (1917)
Min Temperature 70 °F 71 °F 58 °F (1930)
Cooling Degree Days 14    
Growing Degree Days 30 (Base 50)    
Moisture  
Dew Point 71 °F    
Average Humidity 77    
Maximum Humidity 98    
Minimum Humidity 40    
Precipitation  
Precipitation 0.00 in - - ()
Sea Level Pressure  
Sea Level Pressure 29.83 in    
Wind  
Wind Speed 10 mph (WSW)    
Max Wind Speed 17 mph    
Max Gust Speed 29 mph    
Visibility 9 miles    
Events Rain , Thunderstorm    
Averages and records for this station are not official NWS values.
T = Trace of Precipitation, MM = Missing Value Source: NWS Daily Summary

Daily Weather History Graph

Daily Weather History Graph

Search for Another Location

Airport or City:

Astronomy

Jun. 10, 2014 Rise Set
Actual Time 6:11 AM CDT 8:14 PM CDT
Civil Twilight 5:44 AM CDT 8:42 PM CDT
Nautical Twilight 5:10 AM CDT 9:15 PM CDT
Astronomical Twilight 4:35 AM CDT 9:50 PM CDT
Moon 5:49 PM CDT (6/10) 4:06 AM CDT (6/10)
Length of Visible Light 14h 57m
Length of Day
14h 03m
Waxing Gibbous, 92% of the Moon is Illuminated
Jun 10
Waxing Gibbous
Jun 12
Full
Jun 19
Last Quarter
Jun 27
New
Jul 5
First Quarter

Hourly Weather History & Observations

Time (CDT) Temp. Heat Index Dew Point Humidity Pressure Visibility Wind Dir Wind Speed Gust Speed Precip Events Conditions
12:15 AM 80.6 °F 86.9 °F 76.8 °F 88% 29.83 in 10.0 mi South 10.4 mph - N/A   Mostly Cloudy
12:35 AM 80.6 °F 87.1 °F 77.0 °F 89% 29.83 in 10.0 mi South 10.4 mph - N/A Rain Light Rain
12:55 AM 80.6 °F 86.8 °F 76.3 °F 87% 29.83 in 10.0 mi South 11.5 mph 17.3 mph N/A   Scattered Clouds
1:15 AM 80.6 °F 86.8 °F 76.3 °F 87% 29.83 in 10.0 mi South 13.8 mph 17.3 mph N/A   Mostly Cloudy
1:35 AM 80.2 °F 86.3 °F 77.0 °F 90% 29.82 in 10.0 mi South 11.5 mph 17.3 mph N/A Rain Light Rain
1:55 AM 80.4 °F 86.6 °F 77.0 °F 89% 29.82 in 10.0 mi South 10.4 mph - N/A   Overcast
2:15 AM 80.6 °F 87.1 °F 77.2 °F 89% 29.81 in 10.0 mi South 12.7 mph - N/A   Mostly Cloudy
2:35 AM 80.6 °F 87.1 °F 77.2 °F 89% 29.81 in 10.0 mi South 11.5 mph 16.1 mph N/A   Overcast
2:55 AM 79.0 °F - 74.8 °F 87% 29.80 in 10.0 mi South 11.5 mph 19.6 mph N/A Rain , Thunderstorm Light Thunderstorms and Rain
3:15 AM 79.3 °F - 77.2 °F 93% 29.80 in 5.0 mi South 10.4 mph 17.3 mph N/A Rain , Thunderstorm Rain
3:35 AM 78.8 °F - 76.6 °F 93% 29.80 in 3.0 mi South 12.7 mph 25.3 mph N/A Rain Heavy Rain
4:15 AM 78.8 °F - 77.0 °F 94% 29.80 in 7.0 mi SSW 15.0 mph 21.9 mph N/A Rain , Thunderstorm Thunderstorms and Rain
4:35 AM 78.8 °F - 77.0 °F 94% 29.79 in 4.0 mi SSW 8.1 mph 20.7 mph N/A Rain , Thunderstorm Thunderstorms and Rain
4:55 AM 78.8 °F - 77.0 °F 94% 29.77 in 10.0 mi South 12.7 mph 19.6 mph N/A Thunderstorm Mostly Cloudy
5:15 AM 79.2 °F - 77.0 °F 93% 29.76 in 10.0 mi South 15.0 mph 24.2 mph N/A   Scattered Clouds
5:35 AM 79.7 °F - 77.0 °F 91% 29.79 in 10.0 mi SSW 16.1 mph 21.9 mph N/A   Mostly Cloudy
5:55 AM 79.9 °F - 77.0 °F 91% 29.81 in 10.0 mi SW 11.5 mph - N/A Thunderstorm Overcast
6:15 AM 75.2 °F - 70.3 °F 85% 29.81 in 4.0 mi NW 10.4 mph - N/A Rain , Thunderstorm Heavy Thunderstorms and Rain
6:35 AM 71.6 °F - 70.2 °F 95% 29.83 in 4.0 mi WNW 16.1 mph 21.9 mph N/A Rain , Thunderstorm Heavy Thunderstorms and Rain
6:55 AM 71.6 °F - 69.8 °F 94% 29.84 in 1.2 mi West 13.8 mph 21.9 mph N/A Rain , Thunderstorm Heavy Thunderstorms and Rain
7:15 AM 70.9 °F - 70.2 °F 98% 29.84 in 1.5 mi WSW 17.3 mph 28.8 mph N/A Rain , Thunderstorm Thunderstorms and Rain
7:35 AM 72.0 °F - 71.1 °F 97% 29.85 in 10.0 mi WSW 9.2 mph 17.3 mph N/A Thunderstorm Thunderstorm
7:55 AM 72.7 °F - 71.2 °F 95% 29.86 in 10.0 mi West 6.9 mph - N/A Thunderstorm Thunderstorm
8:15 AM 72.9 °F - 71.6 °F 96% 29.85 in 10.0 mi SSW 6.9 mph - N/A Rain , Thunderstorm Thunderstorms and Rain
8:35 AM 73.2 °F - 71.8 °F 95% 29.86 in 2.5 mi WSW 3.5 mph - N/A Rain , Thunderstorm Light Thunderstorms and Rain
8:55 AM 74.3 °F - 72.3 °F 94% 29.86 in 10.0 mi SSW 5.8 mph - N/A Rain , Thunderstorm Light Thunderstorms and Rain
9:15 AM 72.9 °F - 70.9 °F 93% 29.88 in 1.5 mi South 12.7 mph 23.0 mph N/A Rain , Thunderstorm Heavy Thunderstorms and Rain
9:35 AM 72.9 °F - 71.6 °F 96% 29.86 in 7.0 mi South 10.4 mph - N/A Rain , Thunderstorm Light Thunderstorms and Rain
9:55 AM 73.4 °F - 72.0 °F 95% 29.86 in 10.0 mi South 5.8 mph - N/A   Mostly Cloudy
10:15 AM 76.1 °F - 73.6 °F 92% 29.87 in 10.0 mi South 6.9 mph - N/A   Clear
10:35 AM 77.4 °F - 73.6 °F 88% 29.86 in 10.0 mi South 9.2 mph - N/A   Scattered Clouds
10:55 AM 79.9 °F - 74.8 °F 85% 29.87 in 10.0 mi SSW 6.9 mph - N/A   Clear
11:15 AM 81.1 °F 86.8 °F 74.5 °F 80% 29.88 in 10.0 mi WSW 3.5 mph - N/A   Clear
11:35 AM 81.7 °F 87.3 °F 73.8 °F 77% 29.87 in 10.0 mi WSW 4.6 mph - N/A   Scattered Clouds
11:55 AM 82.9 °F 89.1 °F 73.4 °F 73% 29.87 in 10.0 mi West 5.8 mph - N/A   Overcast
12:15 PM 83.8 °F 89.5 °F 72.3 °F 68% 29.86 in 10.0 mi WSW 6.9 mph - N/A   Mostly Cloudy
12:55 PM 84.9 °F 89.7 °F 70.5 °F 62% 29.85 in 10.0 mi SW 12.7 mph - N/A   Mostly Cloudy
1:15 PM 86.2 °F 91.8 °F 71.2 °F 61% 29.84 in 10.0 mi WSW 12.7 mph - N/A   Scattered Clouds
1:35 PM 86.7 °F 91.0 °F 69.4 °F 56% 29.84 in 10.0 mi SW 13.8 mph 20.7 mph N/A   Clear
2:15 PM 88.2 °F 90.6 °F 66.4 °F 48% 29.84 in 10.0 mi SW 16.1 mph 20.7 mph N/A   Clear
2:55 PM 88.3 °F 90.5 °F 65.8 °F 47% 29.83 in 10.0 mi WSW 16.1 mph 20.7 mph N/A   Clear
3:35 PM 88.9 °F 89.7 °F 63.0 °F 42% 29.82 in 10.0 mi WSW 15.0 mph 23.0 mph N/A   Clear
3:55 PM 89.2 °F 90.2 °F 63.5 °F 42% 29.81 in 10.0 mi WSW 15.0 mph 18.4 mph N/A   Clear
4:15 PM 89.6 °F 91.1 °F 64.4 °F 43% 29.81 in 10.0 mi West 13.8 mph 23.0 mph N/A   Clear
4:55 PM 89.6 °F 90.4 °F 63.1 °F 41% 29.81 in 10.0 mi West 11.5 mph 21.9 mph N/A   Clear
5:15 PM 89.2 °F 89.6 °F 62.2 °F 40% 29.80 in 10.0 mi West 11.5 mph 17.3 mph N/A   Clear
5:35 PM 89.1 °F 89.3 °F 61.7 °F 40% 29.80 in 10.0 mi West 11.5 mph - N/A   Clear
5:55 PM 88.7 °F 89.1 °F 62.4 °F 41% 29.80 in 10.0 mi West 8.1 mph - N/A   Clear
6:15 PM 88.3 °F 88.9 °F 62.8 °F 42% 29.80 in 10.0 mi West 9.2 mph - N/A   Clear
6:55 PM 86.0 °F 88.2 °F 65.8 °F 51% 29.80 in 10.0 mi WNW 6.9 mph - N/A   Clear
7:15 PM 84.4 °F 85.6 °F 64.0 °F 50% 29.80 in 10.0 mi NW 10.4 mph 16.1 mph N/A   Clear
7:35 PM 83.3 °F 84.4 °F 63.5 °F 51% 29.80 in 10.0 mi WNW 8.1 mph - N/A   Clear
7:55 PM 81.5 °F 83.1 °F 64.4 °F 56% 29.81 in 10.0 mi WNW 6.9 mph - N/A   Clear
8:15 PM 79.5 °F - 65.8 °F 63% 29.81 in 10.0 mi NW 8.1 mph - N/A   Clear
8:35 PM 78.1 °F - 66.2 °F 67% 29.82 in 10.0 mi NW 5.8 mph - N/A   Clear
8:55 PM 77.2 °F - 66.2 °F 69% 29.82 in 10.0 mi NW 5.8 mph - N/A   Clear
9:15 PM 77.0 °F - 65.8 °F 68% 29.83 in 10.0 mi WNW 5.8 mph - N/A   Clear
9:35 PM 76.1 °F - 66.9 °F 73% 29.84 in 10.0 mi Calm Calm - N/A   Clear
9:55 PM 76.5 °F - 66.4 °F 71% 29.85 in 10.0 mi Calm Calm - N/A   Clear
10:15 PM 73.4 °F - 68.2 °F 84% 29.86 in 10.0 mi Calm Calm - N/A   Clear
10:35 PM 73.4 °F - 68.2 °F 84% 29.86 in 10.0 mi Calm Calm - N/A   Clear
10:55 PM 75.4 °F - 68.0 °F 78% 29.86 in 10.0 mi Calm Calm - N/A   Clear
11:15 PM 72.7 °F - 68.5 °F 87% 29.87 in 10.0 mi WNW 3.5 mph - N/A   Clear
11:35 PM 72.0 °F - 69.6 °F 92% 29.87 in 10.0 mi WNW 3.5 mph - N/A   Clear
11:55 PM 71.6 °F - 69.1 °F 92% 29.88 in 10.0 mi NW 3.5 mph - N/A   Clear